| time (UTC) | temp C | wind direction | speed KPH | gust KPH | rain 1hr cm | rain 24hr cm | rain mn cm | humidity % | barometer mb |
| 20260508183847 | 11 | 67 | 3.2 | 12.9 | 0.00 | 0.23 | 0.23 | 55 | 1009.7 |
| 20260508183346 | 11 | 239 | 4.8 | 12.9 | 0.00 | 0.23 | 0.23 | 52 | 1009.7 |
| 20260508182852 | 11 | 241 | 3.2 | 16.1 | 0.00 | 0.23 | 0.23 | 53 | 1009.6 |
| 20260508182350 | 11 | 275 | 6.4 | 16.1 | 0.00 | 0.23 | 0.23 | 54 | 1009.6 |
| 20260508181847 | 11 | 245 | 4.8 | 11.3 | 0.00 | 0.23 | 0.23 | 54 | 1009.7 |
| 20260508181346 | 11 | 92 | 4.8 | 14.5 | 0.00 | 0.23 | 0.23 | 53 | 1009.5 |
| 20260508180835 | 11 | 157 | 6.4 | 14.5 | 0.00 | 0.23 | 0.23 | 51 | 1009.5 |
| 20260508180353 | 11 | 312 | 3.2 | 9.7 | 0.00 | 0.23 | 0.23 | 55 | 1009.6 |
| 20260508175840 | 11 | 233 | 4.8 | 9.7 | 0.00 | 0.23 | 0.23 | 52 | 1009.7 |
| 20260508175358 | 10 | 184 | 3.2 | 20.9 | 0.00 | 0.23 | 0.23 | 54 | 1009.7 |
| 20260508174850 | 11 | 293 | 4.8 | 20.9 | 0.00 | 0.23 | 0.23 | 54 | 1009.7 |
| 20260508174344 | 11 | 338 | 4.8 | 14.5 | 0.00 | 0.23 | 0.23 | 60 | 1009.7 |
| 20260508173850 | 10 | 24 | 6.4 | 14.5 | 0.00 | 0.23 | 0.23 | 57 | 1009.7 |
| 20260508173340 | 10 | 330 | 4.8 | 9.7 | 0.00 | 0.23 | 0.23 | 56 | 1009.8 |
| 20260508172841 | 10 | 219 | 4.8 | 11.3 | 0.00 | 0.23 | 0.23 | 55 | 1009.9 |
| 20260508172356 | 10 | 221 | 4.8 | 11.3 | 0.00 | 0.23 | 0.23 | 58 | 1009.9 |
| 20260508171856 | 10 | 49 | 1.6 | 6.4 | 0.00 | 0.23 | 0.23 | 60 | 1010.0 |
| 20260508171352 | 10 | 321 | 3.2 | 8.0 | 0.00 | 0.23 | 0.23 | 60 | 1010.0 |
| 20260508170844 | 10 | 202 | 4.8 | 17.7 | 0.00 | 0.23 | 0.23 | 62 | 1010.1 |
| 20260508170407 | 9 | 153 | 4.8 | 17.7 | 0.00 | 0.23 | 0.23 | 56 | 1010.1 |
| 20260508165852 | 10 | 156 | 8.0 | 14.5 | 0.00 | 0.23 | 0.23 | 60 | 1010.2 |
| 20260508165353 | 9 | 231 | 4.8 | 9.7 | 0.00 | 0.23 | 0.23 | 60 | 1010.2 |
| 20260508164851 | 9 | 348 | 3.2 | 11.3 | 0.00 | 0.23 | 0.23 | 60 | 1010.2 |
| 20260508164350 | 10 | 107 | 4.8 | 9.7 | 0.00 | 0.23 | 0.23 | 59 | 1010.2 |
| 20260508163848 | 10 | 219 | 4.8 | 12.9 | 0.00 | 0.23 | 0.23 | 57 | 1010.3 |
| 20260508163345 | 10 | 234 | 4.8 | 11.3 | 0.00 | 0.23 | 0.23 | 69 | 1010.3 |
| 20260508162841 | 9 | 178 | 4.8 | 17.7 | 0.00 | 0.23 | 0.23 | 66 | 1010.3 |
| 20260508162345 | 9 | 46 | 3.2 | 17.7 | 0.00 | 0.23 | 0.23 | 67 | 1010.3 |
| 20260508161837 | 9 | 332 | 6.4 | 12.9 | 0.00 | 0.23 | 0.23 | 71 | 1010.5 |
| 20260508161344 | 8 | 271 | 4.8 | 12.9 | 0.00 | 0.23 | 0.23 | 68 | 1010.5 |
| 20260508160846 | 8 | 45 | 6.4 | 11.3 | 0.00 | 0.23 | 0.23 | 68 | 1010.6 |
| 20260508160349 | 8 | 207 | 3.2 | 8.0 | 0.00 | 0.23 | 0.23 | 70 | 1010.6 |
| 20260508155836 | 8 | 218 | 3.2 | 8.0 | 0.00 | 0.23 | 0.23 | 75 | 1010.7 |
| 20260508155357 | 7 | 206 | 3.2 | 6.4 | 0.00 | 0.23 | 0.23 | 75 | 1010.8 |
| 20260508154850 | 7 | 288 | 1.6 | 6.4 | 0.00 | 0.23 | 0.23 | 74 | 1010.7 |
| 20260508154342 | 7 | 184 | 3.2 | 9.7 | 0.00 | 0.23 | 0.23 | 77 | 1010.6 |
| 20260508153844 | 8 | 75 | 3.2 | 9.7 | 0.00 | 0.23 | 0.23 | 74 | 1010.6 |
| 20260508153338 | 8 | 206 | 6.4 | 8.0 | 0.00 | 0.23 | 0.23 | 78 | 1010.7 |
| 20260508152854 | 7 | 344 | 3.2 | 6.4 | 0.00 | 0.23 | 0.23 | 80 | 1010.7 |
| 20260508152349 | 7 | 22 | 1.6 | 11.3 | 0.00 | 0.23 | 0.23 | 81 | 1010.7 |
| 20260508151852 | 7 | 269 | 3.2 | 11.3 | 0.00 | 0.23 | 0.23 | 80 | 1010.7 |
| 20260508151352 | 7 | 355 | 3.2 | 6.4 | 0.00 | 0.23 | 0.23 | 82 | 1010.6 |
| 20260508150911 | 7 | 14 | 3.2 | 9.7 | 0.00 | 0.23 | 0.23 | 82 | 1010.6 |
| 20260508150348 | 7 | 222 | 4.8 | 9.7 | 0.00 | 0.23 | 0.23 | 85 | 1010.6 |
| 20260508145913 | 7 | 182 | 4.8 | 8.0 | 0.00 | 0.23 | 0.23 | 86 | 1010.6 |
| 20260508145355 | 6 | 222 | 3.2 | 9.7 | 0.00 | 0.23 | 0.23 | 88 | 1010.7 |
| 20260508144835 | 6 | 171 | 1.6 | 11.3 | 0.00 | 0.23 | 0.23 | 88 | 1010.6 |
| 20260508144334 | 6 | 181 | 1.6 | 8.0 | 0.00 | 0.23 | 0.23 | 90 | 1010.6 |
| 20260508143906 | 6 | 155 | 1.6 | 9.7 | 0.00 | 0.23 | 0.23 | 91 | 1010.6 |
| 20260508143342 | 6 | 155 | 4.8 | 9.7 | 0.00 | 0.23 | 0.23 | 93 | 1010.6 |
| 20260508142856 | 5 | 71 | 3.2 | 9.7 | 0.00 | 0.23 | 0.23 | 91 | 1010.6 |
| 20260508142351 | 5 | 121 | 3.2 | 6.4 | 0.00 | 0.23 | 0.23 | 94 | 1010.6 |
| 20260508141842 | 5 | 323 | 0.0 | 3.2 | 0.00 | 0.23 | 0.23 | 93 | 1010.7 |
| 20260508141343 | 5 | 126 | 0.0 | 4.8 | 0.00 | 0.23 | 0.23 | 93 | 1010.7 |
| 20260508140840 | 5 | 126 | 3.2 | 4.8 | 0.00 | 0.23 | 0.23 | 93 | 1010.7 |
| 20260508140336 | 4 | 200 | 0.0 | 3.2 | 0.00 | 0.23 | 0.23 | 92 | 1010.7 |
| 20260508135851 | 4 | 200 | 0.0 | 3.2 | 0.00 | 0.23 | 0.23 | 93 | 1010.6 |
| 20260508135334 | 4 | 200 | 0.0 | 1.6 | 0.00 | 0.23 | 0.23 | 93 | 1010.6 |
| 20260508134841 | 4 | 200 | 0.0 | 1.6 | 0.00 | 0.23 | 0.23 | 93 | 1010.5 |
| 20260508134335 | 4 | 200 | 0.0 | 1.6 | 0.00 | 0.23 | 0.23 | 93 | 1010.5 |
| 20260508133840 | 4 | 200 | 0.0 | 4.8 | 0.00 | 0.23 | 0.23 | 93 | 1010.3 |
| 20260508133407 | 3 | 200 | 1.6 | 6.4 | 0.00 | 0.23 | 0.23 | 93 | 1010.4 |
| 20260508132853 | 3 | 223 | 3.2 | 6.4 | 0.00 | 0.23 | 0.23 | 93 | 1010.4 |
| 20260508132403 | 4 | 345 | 0.0 | 0.0 | 0.00 | 0.23 | 0.23 | 94 | 1010.6 |
| 20260508131858 | 4 | 337 | 0.0 | 3.2 | 0.00 | 0.23 | 0.23 | 94 | 1010.6 |
| 20260508131413 | 3 | 337 | 1.6 | 3.2 | 0.00 | 0.23 | 0.23 | 94 | 1010.6 |
| 20260508130918 | 3 | 61 | 1.6 | 3.2 | 0.00 | 0.23 | 0.23 | 94 | 1010.3 |
| 20260508130331 | 3 | 49 | 0.0 | 6.4 | 0.00 | 0.23 | 0.23 | 93 | 1010.4 |
| 20260508125842 | 3 | 49 | 1.6 | 6.4 | 0.03 | 0.23 | 0.23 | 94 | 1010.5 |
| 20260508125339 | 3 | 65 | 0.0 | 4.8 | 0.03 | 0.23 | 0.23 | 93 | 1010.5 |
| 20260508124840 | 3 | 313 | 1.6 | 4.8 | 0.05 | 0.23 | 0.23 | 93 | 1010.4 |
| 20260508124340 | 3 | 212 | 1.6 | 8.0 | 0.08 | 0.23 | 0.23 | 93 | 1010.2 |
| 20260508123844 | 3 | 11 | 3.2 | 8.0 | 0.13 | 0.23 | 0.23 | 93 | 1010.4 |
| 20260508123357 | 3 | 282 | 0.0 | 6.4 | 0.13 | 0.23 | 0.23 | 93 | 1010.5 |
| 20260508122854 | 3 | 306 | 1.6 | 6.4 | 0.13 | 0.23 | 0.23 | 93 | 1010.5 |
| 20260508122357 | 3 | 290 | 1.6 | 6.4 | 0.13 | 0.23 | 0.23 | 93 | 1010.3 |
| 20260508121847 | 3 | 24 | 3.2 | 4.8 | 0.13 | 0.23 | 0.23 | 94 | 1010.3 |
| 20260508121340 | 3 | 284 | 0.0 | 0.0 | 0.13 | 0.23 | 0.23 | 94 | 1010.4 |
| 20260508120844 | 3 | 284 | 0.0 | 3.2 | 0.13 | 0.23 | 0.23 | 94 | 1010.3 |
| 20260508120336 | 3 | 284 | 0.0 | 6.4 | 0.13 | 0.23 | 0.23 | 94 | 1010.3 |
| 20260508115844 | 3 | 282 | 1.6 | 6.4 | 0.10 | 0.20 | 0.20 | 93 | 1010.2 |
| 20260508115348 | 3 | 277 | 1.6 | 6.4 | 0.10 | 0.20 | 0.20 | 93 | 1010.2 |
| 20260508114342 | 3 | 165 | 0.0 | 0.0 | 0.05 | 0.15 | 0.15 | 94 | 1010.4 |
| 20260508113840 | 3 | 165 | 0.0 | 1.6 | 0.00 | 0.10 | 0.10 | 94 | 1010.2 |
| 20260508113336 | 3 | 165 | 0.0 | 1.6 | 0.00 | 0.10 | 0.10 | 94 | 1010.2 |
| 20260508112859 | 3 | 165 | 0.0 | 3.2 | 0.03 | 0.10 | 0.10 | 94 | 1009.5 |
| 20260508112348 | 3 | 165 | 0.0 | 3.2 | 0.03 | 0.10 | 0.10 | 94 | 1009.5 |
| 20260508111847 | 3 | 165 | 0.0 | 0.0 | 0.03 | 0.10 | 0.10 | 94 | 1009.4 |
| 20260508111407 | 3 | 165 | 0.0 | 0.0 | 0.08 | 0.10 | 0.10 | 93 | 1009.7 |
| 20260508110844 | 3 | 165 | 0.0 | 3.2 | 0.08 | 0.10 | 0.10 | 93 | 1009.7 |
| 20260508110340 | 3 | 165 | 0.0 | 3.2 | 0.08 | 0.10 | 0.10 | 93 | 1009.6 |
| 20260508105917 | 3 | 71 | 0.0 | 3.2 | 0.08 | 0.10 | 0.10 | 93 | 1009.6 |
| 20260508105351 | 3 | 71 | 0.0 | 0.0 | 0.08 | 0.10 | 0.10 | 93 | 1009.6 |
| 20260508104840 | 3 | 71 | 0.0 | 0.0 | 0.08 | 0.10 | 0.10 | 93 | 1009.6 |
| 20260508104342 | 3 | 71 | 0.0 | 0.0 | 0.08 | 0.10 | 0.10 | 92 | 1009.7 |
| 20260508103841 | 3 | 71 | 0.0 | 0.0 | 0.08 | 0.10 | 0.10 | 92 | 1009.5 |
| 20260508103342 | 3 | 71 | 0.0 | 0.0 | 0.08 | 0.10 | 0.10 | 93 | 1009.4 |
| 20260508102846 | 3 | 71 | 0.0 | 0.0 | 0.05 | 0.08 | 0.08 | 93 | 1009.4 |
| 20260508102335 | 3 | 71 | 0.0 | 0.0 | 0.05 | 0.08 | 0.08 | 93 | 1009.2 |
| 20260508101840 | 3 | 71 | 0.0 | 0.0 | 0.03 | 0.05 | 0.05 | 93 | 1009.2 |
| 20260508101359 | 3 | 71 | 0.0 | 0.0 | 0.00 | 0.03 | 0.03 | 93 | 1009.2 |
| 20260508100834 | 3 | 71 | 0.0 | 0.0 | 0.00 | 0.03 | 0.03 | 93 | 1009.2 |
| 20260508100350 | 3 | 71 | 0.0 | 0.0 | 0.00 | 0.03 | 0.03 | 93 | 1009.2 |
| 20260508095836 | 3 | 71 | 0.0 | 0.0 | 0.00 | 0.03 | 0.03 | 93 | 1008.8 |
| 20260508095347 | 3 | 71 | 0.0 | 0.0 | 0.00 | 0.03 | 0.03 | 93 | 1008.6 |
| 20260508094858 | 3 | 71 | 0.0 | 0.0 | 0.00 | 0.03 | 0.03 | 92 | 1008.7 |
| 20260508094351 | 3 | 71 | 0.0 | 0.0 | 0.00 | 0.03 | 0.03 | 92 | 1008.7 |
| 20260508093847 | 3 | 71 | 0.0 | 0.0 | 0.00 | 0.03 | 0.03 | 92 | 1008.9 |
| 20260508093333 | 3 | 71 | 0.0 | 0.0 | 0.00 | 0.03 | 0.03 | 92 | 1009.0 |
| 20260508092847 | 3 | 71 | 0.0 | 0.0 | 0.00 | 0.03 | 0.03 | 92 | 1008.9 |
| 20260508092408 | 3 | 71 | 0.0 | 0.0 | 0.00 | 0.03 | 0.03 | 92 | 1009.2 |
| 20260508091909 | 3 | 71 | 0.0 | 0.0 | 0.00 | 0.03 | 0.03 | 92 | 1009.5 |
| 20260508091341 | 3 | 71 | 0.0 | 0.0 | 0.00 | 0.03 | 0.03 | 92 | 1009.3 |
| 20260508090836 | 3 | 71 | 0.0 | 0.0 | 0.00 | 0.03 | 0.03 | 92 | 1009.1 |
| 20260508090348 | 3 | 71 | 0.0 | 0.0 | 0.00 | 0.03 | 0.03 | 92 | 1009.2 |
| 20260508085841 | 3 | 71 | 0.0 | 0.0 | 0.00 | 0.03 | 0.03 | 92 | 1009.2 |
| 20260508085343 | 3 | 71 | 0.0 | 0.0 | 0.00 | 0.03 | 0.03 | 93 | 1009.2 |
| 20260508084843 | 3 | 71 | 0.0 | 0.0 | 0.00 | 0.03 | 0.03 | 93 | 1009.5 |
| 20260508084342 | 3 | 71 | 0.0 | 0.0 | 0.03 | 0.03 | 0.03 | 93 | 1009.6 |
| 20260508083838 | 3 | 71 | 0.0 | 0.0 | 0.03 | 0.03 | 0.03 | 93 | 1009.7 |
| 20260508083341 | 3 | 71 | 0.0 | 0.0 | 0.03 | 0.03 | 0.03 | 93 | 1009.5 |
| 20260508082834 | 3 | 71 | 0.0 | 0.0 | 0.03 | 0.03 | 0.03 | 93 | 1009.5 |
| 20260508082354 | 3 | 71 | 0.0 | 0.0 | 0.03 | 0.03 | 0.03 | 93 | 1009.5 |
| 20260508081835 | 3 | 71 | 0.0 | 0.0 | 0.03 | 0.03 | 0.03 | 92 | 1009.7 |
| 20260508081354 | 3 | 71 | 0.0 | 0.0 | 0.03 | 0.03 | 0.03 | 92 | 1009.7 |
| 20260508080852 | 3 | 71 | 0.0 | 0.0 | 0.03 | 0.03 | 0.03 | 92 | 1009.5 |
| 20260508080334 | 3 | 71 | 0.0 | 0.0 | 0.03 | 0.03 | 0.03 | 92 | 1009.4 |
| 20260508075843 | 3 | 71 | 0.0 | 3.2 | 0.03 | 0.03 | 0.03 | 93 | 1009.5 |
| 20260508075402 | 3 | 71 | 0.0 | 3.2 | 0.03 | 0.03 | 0.03 | 93 | 1009.8 |
| 20260508074835 | 3 | 71 | 0.0 | 3.2 | 0.00 | 0.00 | 0.00 | 93 | 1009.9 |
| 20260508074338 | 3 | 71 | 0.0 | 4.8 | 0.00 | 0.00 | 0.00 | 93 | 1009.9 |
| 20260508073836 | 3 | 71 | 1.6 | 6.4 | 0.00 | 0.00 | 0.00 | 93 | 1009.8 |
| 20260508073400 | 3 | 249 | 1.6 | 8.0 | 0.00 | 0.00 | 0.00 | 93 | 1010.1 |
| 20260508072835 | 3 | 226 | 3.2 | 8.0 | 0.00 | 0.00 | 0.00 | 93 | 1009.8 |
| 20260508072352 | 3 | 231 | 0.0 | 4.8 | 0.00 | 0.00 | 0.00 | 94 | 1009.8 |
| 20260508071911 | 3 | 225 | 1.6 | 3.2 | 0.00 | 0.00 | 0.00 | 94 | 1009.7 |
| 20260508071410 | 3 | 225 | 0.0 | 3.2 | 0.00 | 0.00 | 0.00 | 94 | 1009.7 |
| 20260508070845 | 3 | 225 | 0.0 | 3.2 | 0.00 | 0.00 | 0.00 | 94 | 1009.5 |
| 20260508070344 | 3 | 225 | 0.0 | 3.2 | 0.00 | 0.00 | 0.00 | 94 | 1009.6 |
| 20260508065847 | 3 | 225 | 1.6 | 3.2 | 0.00 | 0.00 | 0.00 | 94 | 1009.5 |
| 20260508065415 | 3 | 225 | 1.6 | 4.8 | 0.00 | 0.00 | 0.00 | 94 | 1009.7 |
| 20260508064852 | 3 | 225 | 1.6 | 4.8 | 0.00 | 0.00 | 0.00 | 94 | 1009.7 |
| 20260508064349 | 3 | 225 | 0.0 | 3.2 | 0.00 | 0.00 | 0.00 | 94 | 1009.7 |
| 20260508063839 | 3 | 225 | 0.0 | 3.2 | 0.00 | 0.00 | 0.00 | 94 | 1009.8 |
| 20260508063345 | 3 | 227 | 1.6 | 3.2 | 0.00 | 0.00 | 0.00 | 94 | 1009.8 |
| 20260508062846 | 3 | 227 | 0.0 | 3.2 | 0.00 | 0.00 | 0.00 | 94 | 1009.8 |
| 20260508062347 | 3 | 227 | 0.0 | 4.8 | 0.00 | 0.00 | 0.00 | 94 | 1009.8 |
| 20260508061843 | 3 | 227 | 1.6 | 4.8 | 0.00 | 0.00 | 0.00 | 94 | 1009.9 |
| 20260508061340 | 3 | 209 | 1.6 | 4.8 | 0.00 | 0.00 | 0.00 | 94 | 1009.9 |
| 20260508060855 | 3 | 209 | 3.2 | 4.8 | 0.00 | 0.00 | 0.00 | 94 | 1009.9 |
| 20260508060348 | 3 | 209 | 0.0 | 3.2 | 0.00 | 0.00 | 0.00 | 94 | 1009.9 |
| 20260508055834 | 3 | 209 | 0.0 | 4.8 | 0.00 | 0.00 | 0.00 | 94 | 1009.9 |
| 20260508055354 | 3 | 208 | 1.6 | 4.8 | 0.00 | 0.00 | 0.00 | 94 | 1010.0 |
| 20260508054846 | 3 | 250 | 3.2 | 4.8 | 0.00 | 0.00 | 0.00 | 94 | 1010.0 |
| 20260508054416 | 3 | 225 | 3.2 | 4.8 | 0.00 | 0.00 | 0.00 | 94 | 1010.1 |
| 20260508053909 | 3 | 225 | 1.6 | 4.8 | 0.00 | 0.00 | 0.00 | 94 | 1010.1 |
| 20260508053348 | 3 | 225 | 1.6 | 3.2 | 0.00 | 0.00 | 0.00 | 94 | 1010.1 |
| 20260508052852 | 3 | 225 | 0.0 | 1.6 | 0.00 | 0.00 | 0.00 | 94 | 1010.1 |
| 20260508052404 | 3 | 225 | 0.0 | 6.4 | 0.00 | 0.00 | 0.00 | 94 | 1010.0 |
| 20260508051845 | 3 | 224 | 3.2 | 8.0 | 0.00 | 0.00 | 0.00 | 94 | 1010.3 |
| 20260508051346 | 3 | 254 | 3.2 | 8.0 | 0.00 | 0.00 | 0.00 | 94 | 1010.3 |
| 20260508050848 | 3 | 236 | 4.8 | 8.0 | 0.00 | 0.00 | 0.00 | 94 | 1010.3 |
| 20260508045842 | 3 | 231 | 1.6 | 8.0 | 0.00 | 0.00 | 0.00 | 94 | 1010.2 |
| 20260508045337 | 3 | 234 | 3.2 | 6.4 | 0.00 | 0.00 | 0.00 | 94 | 1010.3 |
| 20260508044838 | 3 | 225 | 1.6 | 8.0 | 0.00 | 0.00 | 0.00 | 94 | 1010.3 |
| 20260508044357 | 2 | 261 | 3.2 | 4.8 | 0.00 | 0.00 | 0.00 | 94 | 1010.4 |
| 20260508043918 | 2 | 242 | 3.2 | 8.0 | 0.00 | 0.00 | 0.00 | 93 | 1010.2 |
| 20260508043355 | 2 | 221 | 3.2 | 8.0 | 0.00 | 0.00 | 0.00 | 93 | 1010.3 |
| 20260508042914 | 2 | 219 | 0.0 | 0.0 | 0.00 | 0.00 | 0.00 | 93 | 1010.2 |
| 20260508042340 | 3 | 219 | 0.0 | 0.0 | 0.00 | 0.00 | 0.00 | 93 | 1010.2 |
| 20260508041854 | 2 | 219 | 0.0 | 0.0 | 0.00 | 0.00 | 0.00 | 93 | 1010.2 |
| 20260508041404 | 3 | 219 | 0.0 | 0.0 | 0.00 | 0.00 | 0.00 | 93 | 1010.2 |
| 20260508040843 | 3 | 219 | 0.0 | 0.0 | 0.00 | 0.00 | 0.00 | 93 | 1010.1 |
| 20260508040337 | 3 | 219 | 0.0 | 0.0 | 0.00 | 0.00 | 0.00 | 93 | 1010.1 |
| 20260508035906 | 3 | 219 | 0.0 | 0.0 | 0.00 | 0.00 | 0.00 | 92 | 1010.0 |
| 20260508035347 | 3 | 219 | 0.0 | 0.0 | 0.00 | 0.00 | 0.00 | 92 | 1010.0 |
| 20260508034901 | 3 | 219 | 0.0 | 0.0 | 0.00 | 0.00 | 0.00 | 92 | 1010.1 |
| 20260508034336 | 3 | 219 | 0.0 | 0.0 | 0.00 | 0.00 | 0.00 | 92 | 1010.0 |
| 20260508033838 | 3 | 219 | 0.0 | 0.0 | 0.00 | 0.00 | 0.00 | 92 | 1010.1 |
| 20260508033342 | 3 | 219 | 0.0 | 0.0 | 0.00 | 0.00 | 0.00 | 92 | 1010.1 |
| 20260508032842 | 3 | 219 | 0.0 | 0.0 | 0.00 | 0.00 | 0.00 | 92 | 1010.1 |
| 20260508032337 | 3 | 219 | 0.0 | 0.0 | 0.00 | 0.00 | 0.00 | 91 | 1010.1 |
| 20260508031911 | 3 | 219 | 0.0 | 0.0 | 0.00 | 0.00 | 0.00 | 91 | 1010.0 |
| 20260508031357 | 3 | 219 | 0.0 | 0.0 | 0.00 | 0.00 | 0.00 | 91 | 1010.0 |
| 20260508030844 | 3 | 219 | 0.0 | 0.0 | 0.00 | 0.00 | 0.00 | 90 | 1010.0 |
| 20260508030336 | 3 | 219 | 0.0 | 0.0 | 0.00 | 0.00 | 0.00 | 90 | 1010.0 |
| 20260508025903 | 3 | 219 | 0.0 | 0.0 | 0.00 | 0.00 | 0.00 | 90 | 1010.1 |
| 20260508025336 | 3 | 219 | 0.0 | 0.0 | 0.00 | 0.00 | 0.00 | 89 | 1010.1 |
| 20260508024834 | 4 | 219 | 0.0 | 0.0 | 0.00 | 0.00 | 0.00 | 89 | 1010.0 |
| 20260508024350 | 4 | 219 | 0.0 | 0.0 | 0.00 | 0.00 | 0.00 | 89 | 1010.0 |
| 20260508023846 | 4 | 219 | 0.0 | 4.8 | 0.00 | 0.00 | 0.00 | 88 | 1010.0 |
| 20260508023338 | 5 | 219 | 0.0 | 4.8 | 0.00 | 0.00 | 0.00 | 88 | 1010.0 |
| 20260508022842 | 5 | 300 | 0.0 | 8.0 | 0.00 | 0.00 | 0.00 | 88 | 1010.0 |
| 20260508022341 | 5 | 299 | 3.2 | 9.7 | 0.00 | 0.00 | 0.00 | 88 | 1010.0 |
| 20260508021837 | 5 | 165 | 0.0 | 6.4 | 0.00 | 0.00 | 0.00 | 87 | 1010.1 |
| 20260508021334 | 5 | 165 | 3.2 | 6.4 | 0.00 | 0.00 | 0.00 | 87 | 1010.1 |
| 20260508020840 | 5 | 274 | 3.2 | 6.4 | 0.00 | 0.00 | 0.00 | 86 | 1010.0 |
| 20260508020333 | 5 | 137 | 0.0 | 4.8 | 0.00 | 0.00 | 0.00 | 86 | 1010.0 |
| 20260508015844 | 5 | 159 | 0.0 | 3.2 | 0.00 | 0.00 | 0.00 | 85 | 1009.9 |
| 20260508015342 | 5 | 57 | 0.0 | 4.8 | 0.00 | 0.00 | 0.00 | 84 | 1009.9 |
| 20260508014836 | 5 | 57 | 1.6 | 8.0 | 0.00 | 0.00 | 0.00 | 84 | 1009.8 |
| 20260508014353 | 5 | 252 | 3.2 | 8.0 | 0.00 | 0.00 | 0.00 | 84 | 1009.9 |
| 20260508013906 | 5 | 36 | 1.6 | 4.8 | 0.00 | 0.00 | 0.00 | 84 | 1009.9 |
| 20260508013346 | 5 | 219 | 1.6 | 3.2 | 0.00 | 0.00 | 0.00 | 83 | 1009.8 |
| 20260508012834 | 5 | 219 | 1.6 | 4.8 | 0.00 | 0.00 | 0.00 | 82 | 1009.8 |
| 20260508012337 | 5 | 219 | 3.2 | 4.8 | 0.00 | 0.00 | 0.00 | 81 | 1009.8 |
| 20260508011838 | 5 | 219 | 3.2 | 4.8 | 0.00 | 0.00 | 0.00 | 81 | 1009.6 |
| 20260508011351 | 5 | 219 | 1.6 | 4.8 | 0.00 | 0.00 | 0.00 | 80 | 1009.4 |
| 20260508010856 | 5 | 219 | 0.0 | 3.2 | 0.00 | 0.00 | 0.00 | 79 | 1009.4 |
| 20260508010351 | 5 | 219 | 0.0 | 4.8 | 0.00 | 0.00 | 0.00 | 79 | 1009.4 |
| 20260508005906 | 5 | 355 | 0.0 | 6.4 | 0.00 | 0.00 | 0.00 | 77 | 1009.3 |
| 20260508005349 | 5 | 256 | 3.2 | 6.4 | 0.00 | 0.00 | 0.00 | 77 | 1009.2 |
| 20260508004848 | 5 | 215 | 1.6 | 4.8 | 0.00 | 0.00 | 0.00 | 75 | 1009.2 |
| 20260508004345 | 5 | 215 | 3.2 | 4.8 | 0.00 | 0.00 | 0.00 | 74 | 1009.3 |
| 20260508003842 | 5 | 293 | 0.0 | 8.0 | 0.00 | 0.00 | 0.00 | 74 | 1009.1 |
| 20260508003338 | 5 | 244 | 1.6 | 12.9 | 0.00 | 0.00 | 0.00 | 72 | 1008.9 |
| 20260508002853 | 5 | 298 | 4.8 | 12.9 | 0.00 | 0.00 | 0.00 | 71 | 1008.9 |
| 20260508002416 | 5 | 211 | 1.6 | 6.4 | 0.00 | 0.00 | 0.00 | 69 | 1008.8 |
| 20260508001855 | 5 | 205 | 1.6 | 6.4 | 0.00 | 0.00 | 0.00 | 68 | 1008.7 |
| 20260508001351 | 6 | 254 | 1.6 | 6.4 | 0.00 | 0.00 | 0.00 | 67 | 1008.7 |
| 20260508000853 | 6 | 244 | 3.2 | 6.4 | 0.00 | 0.00 | 0.00 | 66 | 1008.8 |
| 20260508000336 | 6 | 288 | 3.2 | 6.4 | 0.00 | 0.00 | 0.00 | 65 | 1008.8 |
| 20260507235909 | 6 | 151 | 1.6 | 8.0 | 0.00 | 0.00 | 0.00 | 65 | 1008.7 |
| 20260507235353 | 6 | 137 | 3.2 | 14.5 | 0.00 | 0.00 | 0.00 | 66 | 1008.7 |
| 20260507234847 | 6 | 34 | 4.8 | 14.5 | 0.00 | 0.00 | 0.00 | 65 | 1008.7 |
| 20260507234400 | 6 | 133 | 4.8 | 6.4 | 0.00 | 0.00 | 0.00 | 64 | 1008.7 |
| 20260507233841 | 7 | 202 | 3.2 | 6.4 | 0.00 | 0.00 | 0.00 | 64 | 1008.7 |
| 20260507233339 | 7 | 201 | 3.2 | 6.4 | 0.00 | 0.00 | 0.00 | 65 | 1008.8 |
| 20260507232852 | 7 | 283 | 3.2 | 6.4 | 0.00 | 0.00 | 0.00 | 62 | 1008.8 |
| 20260507232344 | 7 | 261 | 1.6 | 6.4 | 0.00 | 0.00 | 0.00 | 61 | 1008.8 |
| 20260507231843 | 7 | 225 | 1.6 | 6.4 | 0.00 | 0.00 | 0.00 | 63 | 1008.8 |
| 20260507231336 | 8 | 283 | 1.6 | 12.9 | 0.00 | 0.00 | 0.00 | 60 | 1008.7 |
| 20260507230834 | 8 | 242 | 3.2 | 12.9 | 0.00 | 0.00 | 0.00 | 59 | 1008.6 |
| 20260507230353 | 8 | 266 | 3.2 | 11.3 | 0.00 | 0.00 | 0.00 | 59 | 1008.7 |
| 20260507225354 | 8 | 229 | 3.2 | 6.4 | 0.00 | 0.00 | 0.00 | 60 | 1008.6 |
| 20260507224843 | 8 | 88 | 1.6 | 6.4 | 0.00 | 0.00 | 0.00 | 58 | 1008.6 |
| 20260507224343 | 8 | 242 | 3.2 | 8.0 | 0.00 | 0.00 | 0.00 | 61 | 1008.6 |
| 20260507223840 | 8 | 201 | 4.8 | 12.9 | 0.00 | 0.00 | 0.00 | 59 | 1008.5 |
| 20260507223337 | 9 | 135 | 3.2 | 12.9 | 0.00 | 0.00 | 0.00 | 55 | 1008.5 |
| 20260507222838 | 9 | 182 | 3.2 | 9.7 | 0.00 | 0.00 | 0.00 | 56 | 1008.5 |
| 20260507222355 | 9 | 232 | 1.6 | 9.7 | 0.00 | 0.00 | 0.00 | 57 | 1008.5 |
| 20260507221850 | 9 | 126 | 1.6 | 6.4 | 0.00 | 0.00 | 0.00 | 56 | 1008.5 |
| 20260507221348 | 9 | 50 | 3.2 | 12.9 | 0.00 | 0.00 | 0.00 | 56 | 1008.5 |
| 20260507220908 | 9 | 360 | 4.8 | 12.9 | 0.00 | 0.00 | 0.00 | 54 | 1008.5 |
| 20260507220345 | 9 | 28 | 3.2 | 12.9 | 0.00 | 0.00 | 0.00 | 56 | 1008.5 |
| 20260507215839 | 10 | 13 | 3.2 | 8.0 | 0.00 | 0.00 | 0.00 | 55 | 1008.5 |
| 20260507215353 | 10 | 325 | 1.6 | 14.5 | 0.00 | 0.00 | 0.00 | 56 | 1008.5 |
| 20260507214849 | 10 | 9 | 3.2 | 14.5 | 0.00 | 0.00 | 0.00 | 56 | 1008.4 |
| 20260507214343 | 10 | 207 | 3.2 | 12.9 | 0.00 | 0.00 | 0.00 | 53 | 1008.3 |
| 20260507213836 | 10 | 317 | 3.2 | 12.9 | 0.00 | 0.00 | 0.00 | 57 | 1008.3 |
| 20260507213335 | 10 | 140 | 3.2 | 11.3 | 0.00 | 0.00 | 0.00 | 53 | 1008.3 |
| 20260507212840 | 11 | 9 | 4.8 | 8.0 | 0.00 | 0.00 | 0.00 | 52 | 1008.3 |
| 20260507212359 | 11 | 48 | 3.2 | 12.9 | 0.00 | 0.00 | 0.00 | 50 | 1008.4 |
| 20260507211856 | 11 | 239 | 3.2 | 16.1 | 0.00 | 0.00 | 0.00 | 50 | 1008.4 |
| 20260507211341 | 11 | 221 | 6.4 | 16.1 | 0.00 | 0.00 | 0.00 | 53 | 1008.4 |
| 20260507210847 | 11 | 204 | 3.2 | 12.9 | 0.00 | 0.00 | 0.00 | 48 | 1008.4 |
| 20260507210349 | 10 | 290 | 4.8 | 12.9 | 0.00 | 0.00 | 0.00 | 51 | 1008.4 |
| 20260507205849 | 10 | 333 | 3.2 | 16.1 | 0.00 | 0.00 | 0.00 | 52 | 1008.5 |
| 20260507205345 | 10 | 263 | 6.4 | 16.1 | 0.00 | 0.00 | 0.00 | 48 | 1008.4 |
| 20260507204907 | 10 | 5 | 3.2 | 12.9 | 0.00 | 0.00 | 0.00 | 49 | 1008.4 |
| 20260507204342 | 11 | 63 | 4.8 | 9.7 | 0.00 | 0.00 | 0.00 | 45 | 1008.5 |
| 20260507203852 | 11 | 194 | 4.8 | 14.5 | 0.00 | 0.00 | 0.00 | 47 | 1008.4 |
| 20260507203353 | 11 | 236 | 3.2 | 14.5 | 0.00 | 0.00 | 0.00 | 50 | 1008.5 |
| 20260507202839 | 11 | 34 | 4.8 | 12.9 | 0.00 | 0.00 | 0.00 | 46 | 1008.5 |
| 20260507202351 | 11 | 238 | 4.8 | 14.5 | 0.00 | 0.00 | 0.00 | 47 | 1008.5 |
| 20260507201843 | 11 | 290 | 4.8 | 14.5 | 0.00 | 0.00 | 0.00 | 46 | 1008.4 |
| 20260507201354 | 11 | 282 | 4.8 | 12.9 | 0.00 | 0.00 | 0.00 | 44 | 1008.4 |
| 20260507200848 | 11 | 242 | 6.4 | 19.3 | 0.00 | 0.00 | 0.00 | 44 | 1008.5 |
| 20260507200349 | 11 | 256 | 8.0 | 19.3 | 0.00 | 0.00 | 0.00 | 47 | 1008.4 |
| 20260507195844 | 12 | 180 | 4.8 | 17.7 | 0.00 | 0.00 | 0.00 | 43 | 1008.4 |
| 20260507195411 | 12 | 307 | 6.4 | 24.1 | 0.00 | 0.00 | 0.00 | 47 | 1008.4 |
| 20260507194842 | 12 | 9 | 8.0 | 24.1 | 0.00 | 0.00 | 0.00 | 47 | 1008.4 |
| 20260507194346 | 12 | 257 | 4.8 | 14.5 | 0.00 | 0.00 | 0.00 | 44 | 1008.4 |
| 20260507193842 | 11 | 227 | 4.8 | 11.3 | 0.00 | 0.00 | 0.00 | 48 | 1008.4 |
| 20260507193405 | 11 | 210 | 6.4 | 14.5 | 0.00 | 0.00 | 0.00 | 47 | 1008.5 |
| 20260507192839 | 12 | 265 | 8.0 | 14.5 | 0.00 | 0.00 | 0.00 | 44 | 1008.5 |
| 20260507192354 | 12 | 242 | 4.8 | 12.9 | 0.00 | 0.00 | 0.00 | 44 | 1008.6 |
| 20260507191840 | 12 | 321 | 4.8 | 14.5 | 0.00 | 0.00 | 0.00 | 48 | 1008.7 |
| 20260507191348 | 12 | 317 | 4.8 | 14.5 | 0.00 | 0.00 | 0.00 | 47 | 1008.6 |
| 20260507190844 | 12 | 250 | 3.2 | 12.9 | 0.00 | 0.00 | 0.00 | 48 | 1008.7 |
| 20260507190337 | 11 | 219 | 6.4 | 19.3 | 0.00 | 0.00 | 0.00 | 51 | 1008.7 |
| 20260507185845 | 11 | 253 | 4.8 | 19.3 | 0.00 | 0.00 | 0.00 | 50 | 1008.9 |
| 20260507185346 | 11 | 190 | 4.8 | 14.5 | 0.00 | 0.00 | 0.00 | 50 | 1008.8 |
| 20260507184920 | 11 | 286 | 3.2 | 14.5 | 0.00 | 0.00 | 0.00 | 48 | 1008.9 |
| 20260507184414 | 11 | 266 | 4.8 | 14.5 | 0.00 | 0.00 | 0.00 | 48 | 1008.7 |